This is the latest recevied weather packets stored in our database for station/object DG3RAP-11. If no packets are shown the sender has not sent any weather packets the latest 10 day(s).
| Time | Temp. | Humidity | Pressure | Rain* | Wind** | Luminosity | Snow |
|---|---|---|---|---|---|---|---|
| 1777950543 | 13.33° C | 76% | 1008.8 hPa | 0 mm | - | - | - |
| 1777950003 | 13.33° C | 77% | 1008.9 hPa | 0 mm | - | - | - |
| 1777949643 | 13.33° C | 76% | 1008.8 hPa | 0 mm | - | - | - |
| 1777949104 | 13.33° C | 75% | 1008.9 hPa | 0 mm | - | - | - |
| 1777948563 | 13.89° C | 72% | 1008.9 hPa | 0 mm | - | - | - |
| 1777948023 | 13.89° C | 70% | 1009.1 hPa | 0 mm | - | - | - |
| 1777947483 | 14.44° C | 68% | 1008.9 hPa | 0 mm | - | - | - |
| 1777946943 | 15° C | 66% | 1009 hPa | 0 mm | - | - | - |
| 1777946404 | 15° C | 65% | 1009.2 hPa | 0 mm | - | - | - |
| 1777946043 | 15.56° C | 64% | 1009 hPa | 0 mm | - | - | - |
| 1777945503 | 15.56° C | 63% | 1009 hPa | 0 mm | - | - | - |
| 1777944963 | 15.56° C | 63% | 1009.1 hPa | 0 mm | - | - | - |
| 1777944423 | 15.56° C | 64% | 1009.1 hPa | 0 mm | - | - | - |
| 1777943884 | 15.56° C | 65% | 1009.2 hPa | 0 mm | - | - | - |
| 1777943343 | 15.56° C | 65% | 1009 hPa | 0 mm | - | - | - |
| 1777942803 | 15.56° C | 67% | 1009.2 hPa | 0 mm | - | - | - |
| 1777942443 | 15.56° C | 67% | 1009.3 hPa | 0 mm | - | - | - |
| 1777941903 | 15.56° C | 66% | 1009.6 hPa | 0 mm | - | - | - |
| 1777941363 | 15.56° C | 66% | 1009.9 hPa | 0 mm | - | - | - |
| 1777940823 | 15.56° C | 65% | 1009.8 hPa | 0 mm | - | - | - |
| 1777940283 | 16.11° C | 65% | 1009.8 hPa | 0 mm | - | - | - |
| 1777939743 | 16.11° C | 65% | 1009.9 hPa | 0 mm | - | - | - |
| 1777939203 | 16.11° C | 64% | 1010 hPa | 0 mm | - | - | - |
| 1777938843 | 16.67° C | 63% | 1010.2 hPa | 0 mm | - | - | - |
| 1777938303 | 17.22° C | 59% | 1010.5 hPa | 0 mm | - | - | - |
* Rain latest hour (hover to see other rain measurements)
** Current wind speed in m/s (hover to see current wind gust speed)